Terminal Aerodrome Forecast
Issued by NWS

Current Version | Previous Version | Text Only | Print | Product List | Glossary Off
Versions: 1 2 3 4 5 6 7 8 9 10 11 12 13 14 15 16 17 18 19 20 21 22 23

977
FTUS41 KPBZ 230825 AAA
TAFMGW
TAF AMD
KMGW 230825Z 2308/2406 10011KT P6SM VCSH OVC040 WS020/11040KT
     FM231200 08015G25KT 3SM -RA OVC012
     FM231700 08014G22KT 3SM -RA BR OVC008
     FM232300 07007KT 4SM -RA OVC008=

USA.gov is the U.S. government's official web portal to all federal, state and local government web resources and services.